Tracking 19192 objects as of 18-Jun-2018
HD Live streaming from Space Station
objects crossing your sky now

PEGASUS

Track PEGASUS now!
10-day predictions
PEGASUS is classified as:


NORAD ID: 42784
Int'l Code: 2017-036V
Perigee: 498.3 km
Apogee: 517.6 km
Inclination: 97.4 °
Period: 94.6 minutes
Semi major axis: 6878 km
RCS: Unknown
Launch date: June 23, 2017
Source: (ASRA)
Launch site: SRIHARIKOTA (SRI)
Uplink (MHz):
Downlink (MHz): 436.670
Beacon (MHz):
Mode: 9600bps GMSK
Call sign: ON03AT
Status: Active

aabbcc
Your satellite tracking list
Your tracking list is empty




NASA's NSSDC Master Catalog

Two Line Element Set (TLE):
1 42784U 17036V   18168.83836163 +.00000883 +00000-0 +42051-4 0  9999
2 42784 097.4010 228.6029 0014063 076.8572 283.4232 15.21663185054614
Source of the keplerian elements: AFSPC